When you browse on this site, cookies collect data to enhance your experience and personalize the content and advertising you see.
Visit our Privacy Policy to learn more. By continuing to use the site, you agree to this use of cookies and data.
  • în România
  • Lista ţărilor
  • Pe 7 zile
  • Temperatura apei
  • Hartă satelitară
  • Meteo pe hartă
  • Widget-uri
  • user-avatar
    Intrare

    Meteo pe oră la Kitzbuhel

    Astăzi, 11 Decembrie, Marţi

    Timp Temperatura Precipitaţii Vânt Presiune Umiditate
    00:00 -4°C° 1.1 mm 3 m/s 676 mmHg 95%
    01:00 -3°C° 0 mm 2 m/s 675 mmHg 95%
    02:00 -4°C° 0.4 mm 2 m/s 676 mmHg 94%
    03:00 -4°C° 0.4 mm 2 m/s 676 mmHg 94%
    04:00 -5°C° 0.4 mm 3 m/s 676 mmHg 93%
    05:00 -5°C° 0.5 mm 3 m/s 676 mmHg 93%
    06:00 -5°C° 0.5 mm 3 m/s 676 mmHg 93%
    07:00 -5°C° 0 mm 4 m/s 676 mmHg 94%
    08:00 -5°C° 0.4 mm 3 m/s 676 mmHg 92%
    09:00 -5°C° 0.4 mm 3 m/s 676 mmHg 91%
    10:00 -5°C° 0.4 mm 3 m/s 677 mmHg 89%
    11:00 -4°C° 0.3 mm 3 m/s 677 mmHg 88%
    12:00 -4°C° 0.3 mm 3 m/s 677 mmHg 86%
    13:00 -4°C° 0.3 mm 3 m/s 677 mmHg 84%
    14:00 -4°C° 0.2 mm 3 m/s 677 mmHg 86%
    15:00 -5°C° 0.2 mm 3 m/s 677 mmHg 88%
    16:00 -4°C° 0.2 mm 2 m/s 677 mmHg 90%
    17:00 -5°C° 0.2 mm 2 m/s 677 mmHg 91%
    18:00 -5°C° 0.2 mm 2 m/s 677 mmHg 91%
    19:00 -6°C° 0.2 mm 2 m/s 677 mmHg 92%
    20:00 -6°C° 0.1 mm 2 m/s 677 mmHg 91%
    21:00 -7°C° 0.1 mm 2 m/s 677 mmHg 90%
    22:00 -7°C° 0.1 mm 2 m/s 677 mmHg 90%
    23:00 -7°C° 0.1 mm 2 m/s 677 mmHg 89%

    Mâine, 12 Decembrie, Miercuri

    Timp Temperatura Precipitaţii Vânt Presiune Umiditate
    00:00 -8°C° 0.1 mm 2 m/s 677 mmHg 88%
    01:00 -8°C° 0.1 mm 2 m/s 677 mmHg 87%
    02:00 -8°C° 0.1 mm 2 m/s 677 mmHg 87%
    03:00 -8°C° 0.1 mm 2 m/s 677 mmHg 87%
    04:00 -8°C° 0.1 mm 2 m/s 676 mmHg 86%
    05:00 -8°C° 0.1 mm 2 m/s 677 mmHg 86%
    06:00 -8°C° 0.1 mm 2 m/s 677 mmHg 86%
    07:00 -8°C° 0.1 mm 2 m/s 677 mmHg 86%
    08:00 -7°C° 0.2 mm 2 m/s 677 mmHg 86%
    09:00 -6°C° 0.2 mm 2 m/s 677 mmHg 86%
    10:00 -5°C° 0.2 mm 2 m/s 677 mmHg 85%
    11:00 -4°C° 0.2 mm 2 m/s 677 mmHg 85%
    12:00 -2°C° 0.2 mm 1 m/s 677 mmHg 85%
    13:00 -1°C° 0.2 mm 1 m/s 677 mmHg 85%
    14:00 -2°C° 0.1 mm 1 m/s 677 mmHg 88%
    15:00 -3°C° 0.1 mm 1 m/s 676 mmHg 91%
    16:00 -3°C° 0.1 mm 1 m/s 676 mmHg 94%
    17:00 -4°C° 0 mm 1 m/s 676 mmHg 94%
    18:00 -6°C° 0 mm 1 m/s 676 mmHg 94%
    19:00 -7°C° 0 mm 1 m/s 676 mmHg 94%
    20:00 -8°C° 0 mm 1 m/s 676 mmHg 93%
    21:00 -8°C° 0 mm 1 m/s 676 mmHg 92%
    22:00 -8°C° 0 mm 1 m/s 676 mmHg 91%
    23:00 -9°C° 0 mm 1 m/s 675 mmHg 90%

    Poimâine, 13 Decembrie, Joi

    Timp Temperatura Precipitaţii Vânt Presiune Umiditate
    00:00 -9°C° 0 mm 1 m/s 675 mmHg 88%
    01:00 -9°C° 0 mm 1 m/s 675 mmHg 87%
    02:00 -9°C° 0 mm 1 m/s 674 mmHg 87%
    03:00 -10°C° 0 mm 1 m/s 674 mmHg 87%
    04:00 -10°C° 0 mm 1 m/s 674 mmHg 87%
    05:00 -10°C° 0 mm 1 m/s 674 mmHg 87%
    06:00 -10°C° 0 mm 1 m/s 673 mmHg 87%
    07:00 -12°C° 0 mm 2 m/s 673 mmHg 87%
    08:00 -10°C° 0 mm 2 m/s 673 mmHg 86%
    09:00 -8°C° 0 mm 2 m/s 673 mmHg 84%
    10:00 -7°C° 0 mm 2 m/s 674 mmHg 83%
    11:00 -6°C° 0 mm 2 m/s 673 mmHg 81%
    12:00 -4°C° 0 mm 2 m/s 673 mmHg 80%
    13:00 -3°C° 0 mm 2 m/s 673 mmHg 78%
    14:00 -4°C° 0 mm 2 m/s 673 mmHg 82%
    15:00 -5°C° 0 mm 2 m/s 672 mmHg 86%
    16:00 -4°C° 0 mm 1 m/s 672 mmHg 90%
    17:00 -6°C° 0 mm 1 m/s 672 mmHg 90%
    18:00 -8°C° 0 mm 2 m/s 673 mmHg 90%
    19:00 -9°C° 0 mm 2 m/s 673 mmHg 90%
    20:00 -9°C° 0 mm 2 m/s 673 mmHg 89%
    21:00 -10°C° 0 mm 2 m/s 673 mmHg 89%
    22:00 -10°C° 0 mm 2 m/s 673 mmHg 88%
    23:00 -10°C° 0 mm 2 m/s 673 mmHg 87%

    14 Decembrie, Vineri

    Timp Temperatura Precipitaţii Vânt Presiune Umiditate
    00:00 -9°C° 0 mm 1 m/s 673 mmHg 87%
    01:00 -9°C° 0 mm 1 m/s 673 mmHg 86%
    02:00 -9°C° 0 mm 1 m/s 673 mmHg 85%
    03:00 -9°C° 0 mm 1 m/s 673 mmHg 84%
    04:00 -10°C° 0 mm 1 m/s 672 mmHg 83%
    05:00 -10°C° 0 mm 1 m/s 672 mmHg 81%
    06:00 -10°C° 0 mm 1 m/s 672 mmHg 79%
    07:00 -10°C° 0 mm 1 m/s 672 mmHg 77%
    08:00 -8°C° 0 mm 1 m/s 673 mmHg 77%
    09:00 -7°C° 0 mm 1 m/s 673 mmHg 76%
    10:00 -4°C° 0 mm 1 m/s 674 mmHg 75%
    11:00 -3°C° 0 mm 1 m/s 674 mmHg 74%
    12:00 -2°C° 0 mm 1 m/s 674 mmHg 72%
    13:00 -1°C° 0 mm 1 m/s 674 mmHg 71%
    14:00 -2°C° 0 mm 1 m/s 674 mmHg 77%
    15:00 -4°C° 0 mm 1 m/s 673 mmHg 84%
    16:00 -6°C° 0 mm 1 m/s 673 mmHg 90%
    17:00 -7°C° 0 mm 1 m/s 673 mmHg 90%
    18:00 -8°C° 0 mm 1 m/s 674 mmHg 90%
    19:00 -8°C° 0 mm 1 m/s 674 mmHg 90%
    20:00 -8°C° 0 mm 1 m/s 674 mmHg 88%
    21:00 -9°C° 0 mm 1 m/s 675 mmHg 87%
    22:00 -9°C° 0 mm 1 m/s 675 mmHg 85%
    23:00 -9°C° 0 mm 1 m/s 675 mmHg 83%

    15 Decembrie, Sâmbătă

    Timp Temperatura Precipitaţii Vânt Presiune Umiditate
    00:00 -9°C° 0 mm 1 m/s 675 mmHg 82%
    01:00 -9°C° 0 mm 1 m/s 675 mmHg 80%
    02:00 -9°C° 0 mm 1 m/s 676 mmHg 81%
    03:00 -9°C° 0 mm 1 m/s 676 mmHg 81%
    04:00 -12°C° 0 mm 2 m/s 676 mmHg 81%
    05:00 -12°C° 0 mm 2 m/s 677 mmHg 83%
    06:00 -12°C° 0 mm 2 m/s 677 mmHg 84%
    07:00 -12°C° 0 mm 2 m/s 677 mmHg 85%
    08:00 -10°C° 0 mm 2 m/s 678 mmHg 84%
    09:00 -9°C° 0 mm 2 m/s 678 mmHg 82%
    10:00 -7°C° 0 mm 1 m/s 679 mmHg 81%
    11:00 -6°C° 0 mm 1 m/s 679 mmHg 80%
    12:00 -4°C° 0 mm 1 m/s 679 mmHg 80%
    13:00 -3°C° 0 mm 1 m/s 679 mmHg 79%
    14:00 -4°C° 0 mm 1 m/s 679 mmHg 82%
    15:00 -6°C° 0 mm 1 m/s 679 mmHg 86%
    16:00 -7°C° 0 mm 1 m/s 679 mmHg 90%
    17:00 -7°C° 0 mm 1 m/s 680 mmHg 89%
    18:00 -8°C° 0 mm 1 m/s 680 mmHg 88%
    19:00 -10°C° 0 mm 2 m/s 680 mmHg 87%
    20:00 -10°C° 0 mm 2 m/s 680 mmHg 85%
    21:00 -10°C° 0 mm 2 m/s 680 mmHg 83%
    22:00 -10°C° 0 mm 2 m/s 681 mmHg 81%
    23:00 -10°C° 0 mm 2 m/s 680 mmHg 78%

    16 Decembrie, Duminică

    Timp Temperatura Precipitaţii Vânt Presiune Umiditate
    00:00 -10°C° 0 mm 2 m/s 680 mmHg 75%
    01:00 -9°C° 0 mm 2 m/s 680 mmHg 73%
    02:00 -9°C° 0 mm 2 m/s 680 mmHg 70%
    03:00 -9°C° 0 mm 2 m/s 680 mmHg 67%
    04:00 -9°C° 0 mm 2 m/s 680 mmHg 63%
    05:00 -9°C° 0 mm 2 m/s 680 mmHg 62%
    06:00 -8°C° 0 mm 2 m/s 681 mmHg 60%
    07:00 -8°C° 0 mm 2 m/s 681 mmHg 59%
    08:00 -7°C° 0 mm 2 m/s 681 mmHg 60%
    09:00 -3°C° 0 mm 1 m/s 681 mmHg 61%
    10:00 -1°C° 0 mm 1 m/s 681 mmHg 62%
    11:00 0°C° 0 mm 1 m/s 681 mmHg 64%
    12:00 +2°C° 0 mm 1 m/s 680 mmHg 66%
    13:00 +4°C° 0 mm 1 m/s 680 mmHg 68%
    14:00 +3°C° 0 mm 1 m/s 680 mmHg 67%
    15:00 +2°C° 0 mm 1 m/s 680 mmHg 65%
    16:00 0°C° 0 mm 1 m/s 680 mmHg 64%
    17:00 0°C° 0 mm 1 m/s 680 mmHg 61%
    18:00 0°C° 0 mm 1 m/s 680 mmHg 59%
    19:00 -1°C° 0 mm 1 m/s 680 mmHg 56%
    20:00 0°C° 0 mm 1 m/s 680 mmHg 55%
    21:00 -2°C° 0 mm 2 m/s 679 mmHg 54%
    22:00 -1°C° 0 mm 2 m/s 679 mmHg 54%
    23:00 -1°C° 0 mm 2 m/s 679 mmHg 55%
    Arată mai mult